Tracking 18987 objects as of 24-Feb-2018
HD Live streaming from Space Station
objects crossing your sky now

NOAA 16 DEB

Track NOAA 16 DEB now!
10-day predictions


NORAD ID: 41411
Int'l Code: 2000-055KQ
Perigee: 829.9 km
Apogee: 856.8 km
Inclination: 98.9 °
Period: 101.6 minutes
Semi major axis: 7214 km
RCS: Unknown
Launch date: September 21, 2000
Source: United States (US)
Launch site: AIR FORCE WESTERN TEST RANGE (AFWTR)

Note: This is SATELLITE DEBRIS
aabbcc
Your satellite tracking list
Your tracking list is empty




NASA's NSSDC Master Catalog

Two Line Element Set (TLE):
1 41411U 00055KQ  18055.06713935 +.00000531 +00000-0 +28702-3 0  9995
2 41411 098.8677 135.6700 0018625 279.0647 080.8420 14.16797092105180
Source of the keplerian elements: AFSPC